Weather in Tulub'yevo

Russia / Tula Oblast     54°27′49″N   38°17′38″E
temp.,
°C
wind,
m/s
gust,
m/s
humid.,
%
clouds,
%
prec.,
mm/h
press.,
hPa
HPBL,
m
9 may, sun
sun900:00+9sw4897100 0.6 1002379
03:00+7wnw6896100 0.6 1004444
06:00+5nw6995100 0.0 1006607
09:00+3nw71296100 0.0 1009620
12:00+3nw81497100 0.4 1011726
15:00+4nw71497100 2.6 1014868
18:00+7nnw51283100 2.1 10161316
21:00+6nne228986 2.3 101948
10 may, mon
mon1000:00+3wnw46905 0.0 102190
03:00+2nnw513870 0.0 1024264
06:00+3n512860 0.0 1025286
09:00+8n610670 0.0 1026826
12:00+11nne79525 0.0 10271378
15:00+12nne794981 0.0 10261466
18:00+11nne69612 0.0 10261039
21:00+6nne412785 0.0 1028245
11 may, tue
tue1100:00+5nne5137785 0.0 1027253
03:00+4nne51382100 0.0 1027283
06:00+6ne6148299 0.0 1028365
09:00+9ne7127681 0.0 1027435
12:00+16ene7106729 0.0 1026881
15:00+18ene6964100 0.0 10251255
18:00+17ene5976100 0.4 1025479
21:00+13ne4119336 1.6 1025245
12 may, wed
wed1200:00+12ene4129661 0.2 1025340
03:00+11ene5129898 0.4 1023446
06:00+10s1196100 0.1 102499
09:00+10wnw1194100 0.3 1025158
12:00+12e4792100 0.4 1024584
15:00+14e4786100 0.5 1023681
18:00+13ese41196100 0.5 1022664
21:00+13ese51197100 0.8 1021569
13 may, thu
thu1300:00+13ese4997100 0.3 1021485
03:00+12ese369988 0.5 1021268
06:00+12se469499 0.0 1021339
09:00+14se479383 0.0 1020453
12:00+19se686839 0.3 10191353
15:00+19se676940 1.0 10191277
18:00+18se467955 0.9 1018428
21:00+14ese379358 1.1 1018121